Lamoni, IA

5:49 PM CDT on July 29, 2016 (GMT -0500)
Lamoni Municipal

Weather History for KLWD - September, 2012

Change the Weather History Date:

Friday, September 14, 2012

  Actual Average Record
Temperature  
Mean Temperature 59 °F 66 °F  
Max Temperature 70 °F 77 °F 86 °F (1991)
Min Temperature 47 °F 55 °F 40 °F (2011)
Degree Days  
Heating Degree Days 6 2  
Month to date heating degree days 23 19  
Since 1 July heating degree days 24 27  
Cooling Degree Days 0 3  
Month to date cooling degree days 75 64  
Year to date cooling degree days 1286 902  
Growing Degree Days 8 (Base 50)    
Moisture  
Dew Point 46 °F    
Average Humidity 65    
Maximum Humidity 93    
Minimum Humidity 37    
Precipitation  
Precipitation 0.04 in 0.10 in 2.12 in (1970)
Month to date precipitation 0.51 1.93  
Sea Level Pressure  
Sea Level Pressure 30.37 in    
Wind  
Wind Speed 4 mph (SW)    
Max Wind Speed 9 mph    
Max Gust Speed 12 mph    
Visibility 10 miles    
Events      
T = Trace of Precipitation, MM = Missing Value Source: NWS Daily Summary

Daily Weather History Graph

Daily Weather History Graph

Search for Another Location

Airport or City:

Trip Planner

Search our weather history database for the weather conditions in past years. The results will help you decide how hot, cold, wet, or windy it might be!

Date:

Astronomy

Sep. 14, 2012 Rise Set
Actual Time 6:55 AM CDT 7:25 PM CDT
Civil Twilight 6:28 AM CDT 7:52 PM CDT
Nautical Twilight 5:55 AM CDT 8:25 PM CDT
Astronomical Twilight 5:22 AM CDT 8:58 PM CDT
Moon 5:20 AM CDT (9/14) 6:22 PM CDT (9/14)
Length of Visible Light 13h 24m
Length of Day
12h 29m
Waning Crescent, 2% of the Moon is Illuminated
Sep 14
Waning Crescent
Sep 15
New
Sep 22
First Quarter
Sep 29
Full
Oct 8
Last Quarter

Hourly Weather History & Observations

Time (CDT) Temp. Dew Point Humidity Pressure Visibility Wind Dir Wind Speed Gust Speed Precip Events Conditions
12:53 AM 50.0 °F 48.0 °F 93% 30.40 in 10.0 mi Calm Calm - 0.01 in   Clear
1:53 AM 50.0 °F 48.0 °F 93% 30.40 in 10.0 mi NW 3.5 mph - N/A   Clear
2:53 AM 50.0 °F 48.0 °F 93% 30.38 in 10.0 mi Calm Calm - N/A   Clear
3:53 AM 48.0 °F 46.0 °F 93% 30.36 in 9.0 mi WNW 3.5 mph - N/A   Unknown
4:53 AM 48.9 °F 46.0 °F 90% 30.37 in 10.0 mi NNW 4.6 mph - N/A   Unknown
5:53 AM 48.9 °F 46.0 °F 90% 30.38 in 10.0 mi NNW 3.5 mph - N/A   Clear
6:53 AM 46.9 °F 45.0 °F 93% 30.38 in 10.0 mi WNW 3.5 mph - N/A   Clear
7:53 AM 48.9 °F 44.1 °F 83% 30.40 in 10.0 mi NW 3.5 mph - N/A   Clear
8:53 AM 53.1 °F 48.0 °F 83% 30.41 in 10.0 mi Calm Calm - N/A   Clear
9:53 AM 57.0 °F 50.0 °F 77% 30.41 in 10.0 mi Calm Calm - N/A   Unknown
10:53 AM 61.0 °F 48.9 °F 64% 30.41 in 10.0 mi Calm Calm - N/A   Unknown
11:53 AM 64.0 °F 42.1 °F 45% 30.41 in 10.0 mi SW 3.5 mph - N/A   Unknown
12:53 PM 64.9 °F 43.0 °F 45% 30.40 in 10.0 mi Variable 3.5 mph - N/A   Clear
1:53 PM 66.0 °F 43.0 °F 43% 30.38 in 10.0 mi SSE 4.6 mph - N/A   Clear
2:53 PM 68.0 °F 46.0 °F 45% 30.36 in 10.0 mi SSW 4.6 mph - N/A   Clear
3:53 PM 69.1 °F 43.0 °F 39% 30.35 in 10.0 mi SSE 6.9 mph - N/A   Clear
4:53 PM 69.1 °F 45.0 °F 42% 30.34 in 10.0 mi South 5.8 mph - N/A   Clear
7:53 PM 62.1 °F 46.0 °F 56% 30.32 in 10.0 mi SSW 3.5 mph - 0.01 in   Clear
8:53 PM 59.0 °F 48.0 °F 67% 30.32 in 10.0 mi SSW 4.6 mph - 0.01 in   Clear
9:53 PM 60.1 °F 46.0 °F 60% 30.32 in 10.0 mi SSW 4.6 mph - 0.01 in   Clear
10:53 PM 55.9 °F 46.9 °F 72% 30.33 in 10.0 mi SW 3.5 mph - N/A   Clear
11:53 PM 57.0 °F 44.1 °F 62% 30.32 in 10.0 mi SW 3.5 mph - 0.01 in   Clear